�N����,����,�~����,�C��,���x,�C��,����,���ϕ���,�ő�u�ԕ���,�ő厞����,���˗�,�I�_���x,�n�����x,�ő啗���N��,DTYPE
"22/05/10","00:10",0.0,10.9,80.3,1013.3,328.9,3.1,3.7,333.5,0.00,7.7,15.2,"00:06:48",1
"22/05/10","00:20",0.0,10.9,80.8,1013.8,334.1,3.1,4.3,345.2,0.00,7.8,15.3,"00:17:20",1
"22/05/10","00:30",0.0,10.5,81.6,1013.5,333.2,2.3,3.7,341.4,0.00,7.5,15.2,"00:20:08",1
"22/05/10","00:40",0.0,10.4,82.5,1013.8,334.0,3.0,4.8,322.5,0.00,7.6,15.1,"00:39:52",1
"22/05/10","00:50",0.0,10.5,83.2,1013.5,331.1,3.2,4.0,324.2,0.00,7.8,15.0,"00:49:20",1
"22/05/10","01:00",0.0,10.3,83.6,1013.5,331.8,2.7,3.6,341.9,0.00,7.7,15.0,"00:52:24",1
"22/05/10","01:10",0.0,10.2,84.3,1013.0,328.6,2.7,4.0,315.1,0.00,7.7,15.0,"01:09:20",1
"22/05/10","01:20",0.0,10.1,84.7,1013.0,316.8,3.0,3.7,328.0,0.00,7.7,15.1,"01:13:20",1
"22/05/10","01:30",0.0,10.0,85.2,1013.0,304.6,2.5,3.6,305.7,0.00,7.7,15.2,"01:23:36",1
"22/05/10","01:40",0.0,9.8,85.5,1013.3,303.3,1.6,2.5,328.4,0.00,7.5,15.1,"01:38:40",1
"22/05/10","01:50",0.0,9.6,85.9,1013.3,305.9,1.6,3.1,317.7,0.00,7.4,14.8,"01:49:28",1
"22/05/10","02:00",0.0,9.6,86.4,1012.6,327.5,2.8,3.7,314.3,0.00,7.5,15.0,"01:50:48",1
"22/05/10","02:10",0.0,9.9,86.8,1013.0,320.8,2.7,3.9,316.2,0.00,7.8,14.8,"02:05:44",1
"22/05/10","02:20",0.0,9.9,86.9,1012.8,320.8,2.7,3.4,318.9,0.00,7.9,14.8,"02:17:28",1
"22/05/10","02:30",0.0,9.8,87.0,1012.6,309.5,2.8,3.7,317.1,0.00,7.8,14.9,"02:26:56",1
"22/05/10","02:40",0.0,10.0,87.1,1012.6,320.7,3.5,4.2,333.7,0.00,8.0,14.9,"02:35:20",1
"22/05/10","02:50",0.0,10.2,86.7,1012.8,328.7,2.6,4.0,329.7,0.00,8.1,15.1,"02:40:08",1
"22/05/10","03:00",0.0,9.9,86.5,1012.6,321.7,2.0,2.7,337.3,0.00,7.8,14.8,"02:56:32",1
"22/05/10","03:10",0.0,10.0,86.7,1012.6,327.1,3.0,3.7,338.8,0.00,7.9,14.8,"03:07:04",1
"22/05/10","03:20",0.0,9.6,86.6,1012.8,334.9,2.5,3.3,334.7,0.00,7.5,14.7,"03:10:16",1
"22/05/10","03:30",0.0,9.4,86.8,1012.6,318.4,2.0,3.2,324.9,0.00,7.4,14.6,"03:21:04",1
"22/05/10","03:40",0.0,8.9,87.0,1013.0,351.7,0.6,2.1,317.4,0.00,6.9,14.8,"03:38:24",1
"22/05/10","03:50",0.0,8.6,87.5,1013.3,336.7,0.8,2.0,328.1,0.00,6.7,14.5,"03:41:52",1
"22/05/10","04:00",0.0,8.2,87.7,1013.0,310.0,1.7,2.5,322.7,0.00,6.3,14.7,"03:58:40",1
"22/05/10","04:10",0.0,7.7,88.2,1013.0,310.1,1.8,2.4,320.1,0.00,5.9,14.6,"04:01:12",1
"22/05/10","04:20",0.0,7.7,88.9,1013.3,317.5,1.6,2.7,324.5,0.00,6.0,14.6,"04:18:08",1
"22/05/10","04:30",0.0,8.3,89.3,1013.3,315.4,2.7,4.5,330.2,0.00,6.7,14.4,"04:24:08",1
"22/05/10","04:40",0.0,8.5,89.7,1013.3,313.6,2.3,3.5,316.1,0.00,6.9,14.3,"04:38:40",1
"22/05/10","04:50",0.0,8.5,90.0,1013.3,321.5,2.5,3.6,314.6,0.00,7.0,14.4,"04:41:12",1
"22/05/10","05:00",0.0,8.5,90.4,1012.8,331.1,2.7,3.4,339.8,0.00,7.1,14.5,"04:57:20",1
"22/05/10","05:10",0.0,8.7,90.6,1013.3,327.6,2.8,4.4,325.3,0.00,7.3,14.2,"05:02:24",1
"22/05/10","05:20",0.0,8.7,90.6,1013.3,332.5,3.2,4.8,335.7,0.00,7.3,14.2,"05:17:52",1
"22/05/10","05:30",0.0,8.9,90.6,1013.0,329.4,4.0,5.6,331.3,0.00,7.5,14.3,"05:28:56",1
"22/05/10","05:40",0.0,9.3,90.4,1013.3,320.4,4.1,6.2,312.6,0.00,7.9,14.3,"05:36:40",1
"22/05/10","05:50",0.0,9.7,90.0,1013.0,308.8,3.4,5.2,333.8,0.00,8.2,14.2,"05:48:48",1
"22/05/10","06:00",0.0,9.6,89.5,1013.5,334.0,2.0,4.7,318.8,0.00,8.0,14.4,"05:51:20",1
"22/05/10","06:10",0.0,9.5,89.3,1013.3,331.2,1.7,3.1,342.8,0.01,7.9,14.0,"06:01:04",1
"22/05/10","06:20",0.0,9.6,88.9,1013.8,335.0,1.6,2.6,332.6,0.02,7.9,14.2,"06:10:48",1
"22/05/10","06:30",0.0,9.8,88.7,1014.2,310.6,1.0,1.6,326.2,0.03,8.1,14.1,"06:24:32",1
"22/05/10","06:40",0.0,9.9,88.4,1014.2,304.9,1.2,2.1,323.1,0.03,8.1,14.1,"06:38:32",1
"22/05/10","06:50",0.0,10.2,88.2,1014.5,319.1,2.3,3.1,324.8,0.05,8.4,14.2,"06:46:24",1
"22/05/10","07:00",0.0,10.5,88.0,1014.2,332.8,2.3,3.4,320.9,0.07,8.6,14.5,"06:59:12",1
"22/05/10","07:10",0.0,11.0,87.7,1014.5,329.8,2.3,3.6,337.0,0.07,9.1,14.3,"07:00:02",1
"22/05/10","07:20",0.0,11.4,87.1,1014.9,331.0,2.5,4.7,338.3,0.11,9.4,14.2,"07:15:44",1
"22/05/10","07:30",0.0,11.8,86.2,1014.2,331.6,2.7,4.3,347.6,0.12,9.6,14.3,"07:22:40",1
"22/05/10","07:40",0.0,12.2,85.0,1014.7,318.9,2.6,3.9,321.0,0.13,9.8,14.3,"07:36:40",1
"22/05/10","07:50",0.0,12.8,83.5,1014.9,331.6,2.7,4.5,338.7,0.15,10.1,14.0,"07:45:12",1
"22/05/10","08:00",0.0,13.4,81.5,1015.2,313.6,2.0,2.8,317.6,0.15,10.3,14.3,"07:50:40",1
"22/05/10","08:10",0.0,13.9,79.0,1015.2,338.0,1.7,2.9,327.2,0.19,10.4,14.2,"08:05:04",1
"22/05/10","08:20",0.0,14.5,75.5,1015.4,335.3,1.5,3.3,339.2,0.19,10.3,14.1,"08:13:20",1
"22/05/10","08:30",0.0,15.4,72.3,1015.2,317.8,0.7,1.8,336.1,0.24,10.5,14.2,"08:21:28",1
"22/05/10","08:40",0.0,16.2,69.9,1014.9,340.1,0.7,1.3,318.9,0.26,10.7,14.3,"08:37:52",1
"22/05/10","08:50",0.0,16.6,67.5,1014.9,326.7,1.1,3.2,346.2,0.29,10.6,14.2,"08:46:16",1
"22/05/10","09:00",0.0,17.1,65.9,1014.9,308.1,1.0,2.0,312.3,0.33,10.7,14.3,"08:56:00",1
"22/05/10","09:10",0.0,16.8,64.7,1014.5,250.9,1.0,2.0,149.0,0.29,10.2,14.4,"09:08:40",1
"22/05/10","09:20",0.0,17.2,64.1,1014.5,98.1,0.5,1.4,144.1,0.30,10.4,14.4,"09:10:32",1
"22/05/10","09:30",0.0,18.1,63.1,1014.0,17.3,0.5,1.2,164.1,0.38,11.0,14.3,"09:23:44",1
"22/05/10","09:40",0.0,18.8,62.3,1014.0,95.0,0.7,2.0,107.9,0.38,11.5,14.4,"09:34:24",1
"22/05/10","09:50",0.0,18.1,61.5,1014.5,189.3,1.2,2.4,158.3,0.33,10.6,14.4,"09:41:20",1
"22/05/10","10:00",0.0,18.7,58.5,1014.2,172.1,0.5,2.6,188.0,0.35,10.4,14.3,"09:57:36",1
"22/05/10","10:10",0.0,18.7,57.1,1014.0,205.6,1.3,2.7,227.8,0.39,10.1,14.7,"10:09:20",1
"22/05/10","10:20",0.0,19.3,58.3,1013.8,174.1,1.0,2.9,186.1,0.37,11.0,14.9,"10:10:08",1
"22/05/10","10:30",0.0,19.2,57.3,1014.0,176.1,1.5,3.4,206.4,0.32,10.6,14.8,"10:26:40",1
"22/05/10","10:40",0.0,19.5,58.3,1013.3,153.5,1.5,3.4,137.2,0.34,11.1,14.6,"10:31:36",1
"22/05/10","10:50",0.0,19.9,58.9,1013.8,142.3,1.2,2.6,164.8,0.39,11.7,14.8,"10:44:56",1
"22/05/10","11:00",0.0,20.3,57.3,1013.5,156.0,1.2,3.2,162.3,0.44,11.6,15.1,"10:51:20",1
"22/05/10","11:10",0.0,21.5,54.7,1013.5,28.1,0.6,2.2,10.6,0.56,12.0,14.9,"11:09:22",1
"22/05/10","11:20",0.0,21.8,52.2,1012.8,79.3,1.3,3.3,171.8,0.57,11.6,15.0,"11:19:52",1
"22/05/10","11:30",0.0,21.3,54.8,1013.0,144.0,2.0,3.9,130.1,0.52,11.9,15.2,"11:27:12",1
"22/05/10","11:40",0.0,21.5,56.4,1012.6,133.6,1.5,3.9,156.4,0.50,12.5,15.1,"11:34:40",1
"22/05/10","11:50",0.0,21.9,56.5,1012.8,128.4,1.3,4.1,122.8,0.52,12.9,15.3,"11:41:12",1
"22/05/10","12:00",0.0,21.6,57.9,1012.8,154.7,1.5,3.5,201.3,0.40,13.0,15.2,"11:53:44",1
"22/05/10","12:10",0.0,21.6,58.7,1012.6,168.1,1.6,5.0,106.0,0.41,13.2,15.4,"12:01:12",1
"22/05/10","12:20",0.0,21.9,59.2,1012.3,130.6,1.5,3.2,145.2,0.40,13.6,15.6,"12:13:12",1
"22/05/10","12:30",0.0,21.7,59.9,1012.3,128.5,1.5,3.4,138.2,0.33,13.6,15.7,"12:25:20",1
"22/05/10","12:40",0.0,21.7,58.1,1012.1,117.2,1.5,4.8,133.6,0.41,13.2,15.5,"12:35:28",1
"22/05/10","12:50",0.0,22.3,58.5,1012.1,100.6,1.1,3.1,116.2,0.43,13.8,15.7,"12:48:32",1
"22/05/10","13:00",0.0,22.4,57.9,1011.9,114.9,1.6,3.7,130.2,0.48,13.8,15.6,"12:58:40",1
"22/05/10","13:10",0.0,22.3,59.3,1011.6,149.2,1.5,4.1,120.3,0.40,14.0,15.8,"13:00:16",1
"22/05/10","13:20",0.0,22.5,58.9,1012.1,142.2,1.3,3.6,154.5,0.41,14.1,16.0,"13:10:02",1
"22/05/10","13:30",0.0,22.5,58.7,1011.6,146.3,1.5,2.6,162.8,0.41,14.1,16.2,"13:23:20",1
"22/05/10","13:40",0.0,22.9,57.2,1011.9,95.7,1.3,3.9,132.4,0.45,14.0,16.3,"13:31:28",1
"22/05/10","13:50",0.0,23.2,57.2,1011.2,99.9,1.2,2.5,110.2,0.42,14.3,16.1,"13:45:04",1
"22/05/10","14:00",0.0,23.3,55.6,1011.2,78.1,1.0,3.1,58.1,0.33,14.0,16.5,"13:50:16",1
"22/05/10","14:10",0.0,22.9,57.6,1011.2,107.9,1.2,2.4,143.9,0.25,14.1,16.4,"14:03:36",1
"22/05/10","14:20",0.0,23.5,56.0,1011.2,103.2,1.2,2.9,82.6,0.40,14.3,16.4,"14:10:56",1
"22/05/10","14:30",0.0,23.2,56.2,1010.9,126.4,1.6,4.0,133.3,0.37,14.0,16.6,"14:25:04",1
"22/05/10","14:40",0.0,23.6,54.8,1010.7,129.7,1.8,3.6,133.7,0.49,14.0,16.5,"14:35:52",1
"22/05/10","14:50",0.0,22.8,56.2,1010.2,152.7,2.0,5.0,138.8,0.26,13.7,16.7,"14:42:48",1
"22/05/10","15:00",0.0,23.5,57.4,1010.7,167.1,2.0,4.3,149.7,0.43,14.6,16.7,"14:53:28",1
"22/05/10","15:10",0.0,23.2,56.8,1010.4,178.0,2.0,4.0,200.5,0.30,14.2,16.8,"15:05:28",1
"22/05/10","15:20",0.0,23.4,56.3,1010.4,127.1,1.1,2.9,130.3,0.24,14.3,16.7,"15:13:28",1
"22/05/10","15:30",0.0,24.3,54.6,1010.4,125.9,1.6,4.8,142.7,0.48,14.6,17.0,"15:26:16",1
"22/05/10","15:40",0.0,24.6,54.1,1010.0,124.9,0.8,2.8,134.2,0.34,14.8,17.0,"15:37:44",1
"22/05/10","15:50",0.0,24.0,53.3,1010.0,66.1,1.1,2.7,333.3,0.29,14.0,17.1,"15:42:40",1
"22/05/10","16:00",0.0,24.7,51.9,1010.2,39.9,1.2,3.5,341.3,0.35,14.2,17.0,"15:55:52",1
"22/05/10","16:10",0.0,24.1,52.4,1010.2,141.6,1.8,4.0,148.8,0.31,13.8,17.2,"16:03:44",1
"22/05/10","16:20",0.0,24.6,53.7,1010.0,150.1,1.1,2.7,122.7,0.31,14.6,17.1,"16:17:04",1
"22/05/10","16:30",0.0,24.3,51.3,1009.7,118.2,1.3,3.5,9.7,0.27,13.7,17.3,"16:29:12",1
"22/05/10","16:40",0.0,24.4,51.9,1009.7,73.2,1.2,2.6,36.4,0.25,13.9,17.3,"16:35:28",1
"22/05/10","16:50",0.0,23.7,53.3,1010.2,125.5,1.1,2.4,124.5,0.15,13.7,17.4,"16:41:44",1
"22/05/10","17:00",0.0,23.3,53.2,1010.0,110.3,1.0,1.9,112.5,0.13,13.3,17.4,"16:58:32",1
"22/05/10","17:10",0.0,23.9,52.6,1010.2,65.5,0.8,2.2,15.1,0.18,13.7,17.6,"17:00:02",1
"22/05/10","17:20",0.0,23.8,53.0,1010.4,96.6,1.0,2.1,131.8,0.15,13.7,17.6,"17:14:32",1
"22/05/10","17:30",0.0,23.8,54.3,1010.2,116.7,1.2,3.4,141.1,0.15,14.1,17.4,"17:21:44",1
"22/05/10","17:40",0.0,23.9,53.6,1010.2,101.4,1.1,2.5,122.9,0.14,14.0,17.6,"17:32:08",1
"22/05/10","17:50",0.0,23.3,53.8,1010.4,79.9,1.2,2.7,68.6,0.07,13.5,17.7,"17:46:00",1
"22/05/10","18:00",0.0,22.8,56.0,1010.4,67.2,0.8,2.0,48.7,0.02,13.6,17.6,"17:51:52",1
"22/05/10","18:10",0.0,22.2,57.4,1010.7,101.8,1.1,2.6,121.0,0.01,13.4,17.7,"18:09:36",1
"22/05/10","18:20",0.0,22.1,58.0,1010.4,97.8,0.8,2.5,102.7,0.01,13.5,17.5,"18:10:48",1
"22/05/10","18:30",0.0,22.0,58.0,1010.7,97.6,1.2,2.5,111.1,0.01,13.4,17.7,"18:23:52",1
"22/05/10","18:40",0.0,21.7,58.6,1010.9,108.6,1.3,4.0,124.2,0.01,13.3,17.7,"18:36:24",1
"22/05/10","18:50",0.0,21.5,60.0,1010.7,116.9,1.0,2.8,96.6,0.00,13.5,17.7,"18:46:24",1
"22/05/10","19:00",0.0,21.3,60.7,1011.2,100.8,1.1,2.5,101.8,0.00,13.4,17.6,"18:59:20",1
"22/05/10","19:10",0.0,21.2,61.6,1011.4,97.7,1.2,2.1,95.0,0.00,13.6,17.7,"19:01:20",1
"22/05/10","19:20",0.0,21.0,62.3,1011.4,94.8,1.0,2.1,90.9,0.00,13.6,17.6,"19:13:20",1
"22/05/10","19:30",0.0,20.8,63.2,1011.6,85.4,0.8,3.4,135.1,0.00,13.6,17.6,"19:22:32",1
"22/05/10","19:40",0.0,20.7,64.0,1011.6,91.5,0.8,2.1,117.1,0.00,13.7,17.7,"19:39:28",1
"22/05/10","19:50",0.0,20.5,64.7,1011.9,92.5,0.8,2.1,120.4,0.00,13.7,17.5,"19:42:56",1
"22/05/10","20:00",0.0,20.3,65.5,1011.9,85.8,0.8,2.1,111.5,0.00,13.7,17.6,"19:54:56",1
"22/05/10","20:10",0.0,20.1,66.4,1012.6,129.2,0.7,1.8,128.6,0.00,13.7,17.7,"20:05:12",1
"22/05/10","20:20",0.0,19.9,66.7,1012.6,145.7,0.7,1.9,130.8,0.00,13.6,17.6,"20:11:36",1
"22/05/10","20:30",0.0,19.8,66.0,1012.8,154.6,0.8,1.8,165.4,0.00,13.3,17.7,"20:24:40",1
"22/05/10","20:40",0.0,19.8,65.2,1013.0,152.8,1.0,2.6,196.2,0.00,13.1,17.5,"20:34:24",1
"22/05/10","20:50",0.0,19.7,64.2,1013.3,165.1,1.0,3.1,164.9,0.00,12.8,17.5,"20:42:24",1
"22/05/10","21:00",0.0,19.6,63.7,1013.5,160.7,1.0,2.6,163.9,0.00,12.6,17.5,"20:57:44",1
"22/05/10","21:10",0.0,19.5,63.5,1013.5,127.3,0.6,1.4,135.6,0.00,12.4,17.6,"21:03:04",1
"22/05/10","21:20",0.0,19.5,64.5,1013.8,338.7,0.5,1.0,333.8,0.00,12.7,17.5,"21:16:48",1
"22/05/10","21:30",0.0,19.5,66.5,1013.5,358.7,0.5,1.2,322.4,0.00,13.1,17.6,"21:25:20",1
"22/05/10","21:40",0.0,19.3,67.4,1013.5,56.8,0.5,1.2,84.2,0.00,13.2,17.5,"21:34:48",1
"22/05/10","21:50",0.0,19.2,67.4,1013.5,56.2,0.6,2.0,106.2,0.00,13.1,17.6,"21:45:20",1
"22/05/10","22:00",0.0,19.1,67.0,1013.3,82.6,0.7,1.3,61.8,0.00,12.9,17.3,"21:52:00",1
"22/05/10","22:10",0.0,19.2,66.2,1013.8,76.8,0.8,2.7,99.8,0.00,12.8,17.4,"22:01:36",1
"22/05/10","22:20",0.0,19.1,65.5,1013.8,88.4,0.7,1.9,92.6,0.00,12.5,17.3,"22:10:02",1
"22/05/10","22:30",0.0,18.9,64.4,1013.5,72.2,0.8,2.0,74.1,0.00,12.1,17.3,"22:28:56",1
"22/05/10","22:40",0.0,18.7,63.8,1013.5,75.3,0.6,2.7,91.6,0.00,11.8,17.2,"22:32:32",1
"22/05/10","22:50",0.0,18.7,63.3,1013.8,37.0,0.6,2.1,33.8,0.00,11.6,17.2,"22:40:56",1
"22/05/10","23:00",0.0,18.5,63.4,1014.2,20.3,0.5,1.8,120.5,0.00,11.5,17.4,"22:50:16",1
"22/05/10","23:10",0.0,18.2,64.2,1013.8,23.3,0.3,1.7,320.6,0.00,11.4,17.3,"23:02:24",1
"22/05/10","23:20",0.0,17.9,64.9,1013.8,323.4,0.8,1.6,340.1,0.00,11.3,17.2,"23:15:28",1
"22/05/10","23:30",0.0,17.7,66.2,1013.8,322.9,0.6,1.7,339.7,0.00,11.4,17.2,"23:21:12",1
"22/05/10","23:40",0.0,17.5,66.8,1013.8,310.4,0.5,1.4,331.6,0.00,11.3,17.3,"23:31:36",1
"22/05/10","23:50",0.0,17.5,66.9,1014.0,340.7,0.6,1.7,307.7,0.00,11.3,17.3,"23:44:32",1
"22/05/10","24:00",0.0,17.4,67.0,1013.5,308.8,0.3,1.3,136.7,0.00,11.3,17.0,"23:55:44",1
